Date String (YYYY-MM-DD hh:mm:ss) UTC,Instrument flags,Ambient pressure (hPa),Sample flow (lpm),Bypass flow (lpm),Sample temperature (°C),Ambient temperature (°C),ASC tube jacket temperature (°C),LED temperature (°C),Box temperature (°C),Sample RH (%),Span deviation,Mass concentration (μg/m³),Mass concentration (μg/m³),Mass concentration (μg/m³)
DateTimeUTC,F1_M11,P_M11,Q1_M11,Q2_M11,T1_M11,T2_M11,T3_M11,T4_M11,T5_M11,U1_M11,ZSPAN_M11,X0_M11,X2_M11,X1_M11
2022-06-11 09:00:00,,0824.3,5.00,0.00,29.4,27.8,00.0,38.4,31.2,15.0,0000.0,0013.94,0005.52,0003.57
2022-06-11 09:01:00,,0824.3,5.00,0.00,29.4,27.9,00.0,38.4,31.2,15.1,0000.0,0013.81,0005.44,0003.55
2022-06-11 09:02:00,,0824.3,5.00,0.00,29.4,28.0,00.0,38.3,31.2,15.3,0000.0,0014.33,0005.45,0003.55
2022-06-11 09:03:00,,0824.3,5.01,0.00,29.4,28.1,00.0,38.3,31.2,15.8,0000.0,0014.83,0005.38,0003.55
2022-06-11 09:04:00,,0824.3,5.01,0.00,29.4,28.2,00.0,38.3,31.3,15.7,0000.0,0014.92,0005.37,0003.54
2022-06-11 09:05:00,,0824.3,5.00,0.00,29.4,28.3,00.0,38.3,31.3,15.6,0000.0,0015.02,0005.35,0003.54
2022-06-11 09:06:00,,0824.3,5.00,0.00,29.4,28.3,00.0,38.3,31.3,15.6,0000.0,0015.41,0005.32,0003.54
2022-06-11 09:07:00,,0824.3,5.00,0.00,29.4,28.4,00.0,38.3,31.3,15.4,0000.0,0015.18,0005.31,0003.53
2022-06-11 09:08:00,,0824.3,5.00,0.00,29.4,28.4,00.0,38.3,31.3,15.5,0000.0,0014.60,0005.32,0003.54
2022-06-11 09:09:00,,0824.3,5.00,0.00,29.5,28.5,00.0,38.3,31.4,15.5,0000.0,0014.46,0005.27,0003.53
2022-06-11 09:10:00,,0824.3,5.01,0.00,29.5,28.5,00.0,38.3,31.4,15.2,0000.0,0014.36,0005.23,0003.54
2022-06-11 09:11:00,,0824.3,5.01,0.00,29.5,28.6,00.0,38.4,31.4,15.2,0000.0,0014.30,0005.19,0003.53
2022-06-11 09:12:00,,0824.3,4.98,0.00,29.5,28.6,00.0,38.4,31.4,15.2,0000.0,0014.51,0005.21,0003.54
2022-06-11 09:13:00,,0824.4,5.00,0.00,29.5,28.6,00.0,38.4,31.4,15.0,0000.0,0014.06,0005.22,0003.55
2022-06-11 09:14:00,,0824.3,5.00,0.00,29.5,28.7,00.0,38.4,31.4,15.0,0000.0,0013.51,0005.30,0003.56
2022-06-11 09:15:00,,0824.4,5.00,0.00,29.6,28.7,00.0,38.4,31.5,15.4,0000.0,0013.27,0005.28,0003.57
2022-06-11 09:16:00,,0824.4,5.00,0.00,29.6,28.7,00.0,38.4,31.5,15.5,0000.0,0013.11,0005.29,0003.58
2022-06-11 09:17:00,,0824.4,5.00,0.00,29.6,28.7,00.0,38.4,31.5,15.6,0000.0,0012.69,0005.33,0003.59
2022-06-11 09:18:00,,0824.4,5.00,0.00,29.6,28.7,00.0,38.4,31.5,15.6,0000.0,0012.56,0005.32,0003.59
2022-06-11 09:19:00,,0824.3,5.00,0.00,29.6,28.8,00.0,38.5,31.5,15.5,0000.0,0012.61,0005.24,0003.58
2022-06-11 09:20:00,,0824.3,5.00,0.00,29.7,28.8,00.0,38.5,31.6,15.5,0000.0,0012.60,0005.24,0003.59
2022-06-11 09:21:00,,0824.3,4.99,0.00,29.7,28.8,00.0,38.5,31.6,15.3,0000.0,0013.09,0005.27,0003.59
2022-06-11 09:22:00,,0824.3,5.00,0.00,29.7,28.8,00.0,38.5,31.6,15.4,0000.0,0013.33,0005.26,0003.59
2022-06-11 09:23:00,,0824.3,5.00,0.00,29.7,28.8,00.0,38.5,31.6,15.5,0000.0,0014.46,0005.28,0003.60
2022-06-11 09:24:00,,0824.2,4.99,0.00,29.7,28.9,00.0,38.5,31.6,15.3,0000.0,0014.58,0005.33,0003.60
2022-06-11 09:25:00,,0824.3,5.00,0.00,29.7,28.9,00.0,38.5,31.6,15.4,0000.0,0014.64,0005.35,0003.60
2022-06-11 09:26:00,,0824.3,4.98,0.00,29.7,28.9,00.0,38.6,31.6,15.5,0000.0,0014.70,0005.38,0003.59
2022-06-11 09:27:00,,0824.3,5.00,0.00,29.8,28.9,00.0,38.6,31.7,15.6,0000.0,0014.49,0005.34,0003.58
2022-06-11 09:28:00,,0824.3,5.01,0.00,29.8,28.9,00.0,38.6,31.7,15.7,0000.0,0014.47,0005.34,0003.59
2022-06-11 09:29:00,,0824.3,5.00,0.00,29.8,28.9,00.0,38.6,31.7,15.9,0000.0,0014.37,0005.34,0003.60
2022-06-11 09:30:00,,0824.3,4.99,0.00,29.8,28.9,00.0,38.6,31.7,15.9,0000.0,0014.73,0005.38,0003.62
2022-06-11 09:31:00,,0824.3,5.00,0.00,29.8,28.9,00.0,38.6,31.7,15.8,0000.0,0014.75,0005.43,0003.63
2022-06-11 09:32:00,,0824.3,5.01,0.00,29.8,28.4,00.0,38.6,31.6,15.8,0000.0,0014.31,0005.44,0003.63
2022-06-11 09:33:00,,0824.3,5.00,0.00,29.7,27.6,00.0,38.5,31.4,16.0,0000.0,0014.94,0005.44,0003.64
2022-06-11 09:34:00,,0824.3,5.01,0.00,29.6,27.4,00.0,38.5,31.3,16.1,0000.0,0013.92,0005.44,0003.65
2022-06-11 09:35:00,,0824.3,4.99,0.00,29.5,27.3,00.0,38.5,31.2,16.2,0000.0,0014.82,0005.40,0003.66
2022-06-11 09:36:00,,0824.3,5.00,0.00,29.5,27.4,00.0,38.5,31.2,16.3,0000.0,0015.16,0005.36,0003.67
2022-06-11 09:37:00,,0824.3,5.01,0.00,29.4,27.5,00.0,38.4,31.1,16.2,0000.0,0015.04,0005.28,0003.66
2022-06-11 09:38:00,,0824.4,5.01,0.00,29.4,27.6,00.0,38.4,31.2,16.1,0000.0,0015.38,0005.34,0003.67
2022-06-11 09:39:00,,0824.3,5.00,0.00,29.4,27.7,00.0,38.4,31.2,16.1,0000.0,0015.74,0005.37,0003.67
2022-06-11 09:40:00,,0824.3,5.00,0.00,29.4,27.9,00.0,38.4,31.2,16.1,0000.0,0015.68,0005.35,0003.65
2022-06-11 09:41:00,,0824.3,4.99,0.00,29.4,28.0,00.0,38.4,31.2,15.9,0000.0,0014.93,0005.34,0003.64
2022-06-11 09:42:00,,0824.4,5.01,0.00,29.4,28.0,00.0,38.4,31.2,15.8,0000.0,0015.32,0005.32,0003.63
2022-06-11 09:43:00,,0824.3,5.00,0.00,29.4,28.1,00.0,38.4,31.3,15.7,0000.0,0017.27,0005.33,0003.62
2022-06-11 09:44:00,,0824.3,4.99,0.00,29.4,28.2,00.0,38.4,31.3,15.6,0000.0,0017.31,0005.38,0003.61
2022-06-11 09:45:00,,0824.4,5.00,0.00,29.4,28.3,00.0,38.4,31.3,15.7,0000.0,0017.02,0005.40,0003.60
2022-06-11 09:46:00,,0824.4,5.00,0.00,29.4,28.3,00.0,38.4,31.3,15.7,0000.0,0016.27,0005.46,0003.59
2022-06-11 09:47:00,,0824.4,5.00,0.00,29.4,28.4,00.0,38.4,31.3,15.7,0000.0,0015.90,0005.49,0003.59
2022-06-11 09:48:00,,0824.4,5.00,0.00,29.4,28.4,00.0,38.4,31.3,15.7,0000.0,0016.54,0005.57,0003.58
2022-06-11 09:49:00,,0824.5,5.00,0.00,29.5,28.4,00.0,38.4,31.4,15.7,0000.0,0016.48,0005.58,0003.57
2022-06-11 09:50:00,,0824.5,5.00,0.00,29.5,28.5,00.0,38.4,31.4,15.8,0000.0,0016.93,0005.61,0003.58
2022-06-11 09:51:00,,0824.5,5.00,0.00,29.5,28.5,00.0,38.4,31.4,15.8,0000.0,0017.63,0005.64,0003.58
2022-06-11 09:52:00,,0824.5,5.00,0.00,29.5,28.5,00.0,38.4,31.4,16.2,0000.0,0017.75,0005.64,0003.58
2022-06-11 09:53:00,,0824.5,5.01,0.00,29.5,28.6,00.0,38.4,31.4,16.2,0000.0,0017.42,0005.65,0003.60
2022-06-11 09:54:00,,0824.4,5.00,0.00,29.5,28.6,00.0,38.4,31.4,15.7,0000.0,0015.69,0005.58,0003.60
2022-06-11 09:55:00,,0824.5,5.00,0.00,29.5,28.6,00.0,38.4,31.4,15.7,0000.0,0014.46,0005.54,0003.60
2022-06-11 09:56:00,,0824.4,5.01,0.00,29.6,28.6,00.0,38.4,31.5,15.7,0000.0,0014.59,0005.52,0003.60
2022-06-11 09:57:00,,0824.5,5.00,0.00,29.6,28.7,00.0,38.4,31.5,15.5,0000.0,0014.37,0005.48,0003.60
2022-06-11 09:58:00,,0824.5,4.99,0.00,29.6,28.7,00.0,38.4,31.5,15.3,0000.0,0014.62,0005.52,0003.59
2022-06-11 09:59:00,,0824.5,4.99,0.00,29.6,28.7,00.0,38.4,31.5,15.5,0000.0,0014.26,0005.47,0003.60
